Time,TemperatureF,DewpointF,PressureIn,WindDirection,WindDirectionDegrees,WindSpeedMPH,WindSpeedGustMPH,Humidity,HourlyPrecipIn,Conditions,Clouds,dailyrainin,SoftwareType,DateUTC
2013-07-06 00:01:00,80.1,74.5,29.86,SE,127,0.0,0.0,83,0.00,,---,0.00,VWS V14.01,2013-07-06 05:01:00,
2013-07-06 00:06:00,80.0,74.4,29.87,SE,128,1.0,1.0,83,0.00,,---,0.00,VWS V14.01,2013-07-06 05:06:00,
2013-07-06 00:11:00,79.9,74.3,29.86,SE,128,2.0,2.0,83,0.00,,---,0.00,VWS V14.01,2013-07-06 05:11:00,
2013-07-06 00:16:00,79.8,74.2,29.86,SE,128,0.0,0.0,83,0.00,,---,0.00,VWS V14.01,2013-07-06 05:16:00,
2013-07-06 00:21:00,79.7,74.4,29.86,SE,128,1.0,2.0,84,0.00,,---,0.00,VWS V14.01,2013-07-06 05:21:00,
2013-07-06 00:26:00,79.6,74.3,29.86,SE,128,0.0,1.0,84,0.00,,---,0.00,VWS V14.01,2013-07-06 05:26:00,
2013-07-06 00:31:00,79.6,74.3,29.86,SE,129,0.0,0.0,84,0.00,,---,0.00,VWS V14.01,2013-07-06 05:31:00,
2013-07-06 00:36:00,79.5,74.2,29.86,SE,130,0.0,0.0,84,0.00,,---,0.00,VWS V14.01,2013-07-06 05:36:00,
2013-07-06 00:41:00,79.4,74.2,29.86,SE,126,1.0,1.0,84,0.00,,---,0.00,VWS V14.01,2013-07-06 05:41:00,
2013-07-06 00:46:00,79.4,74.2,29.86,SE,127,0.0,0.0,84,0.00,,---,0.00,VWS V14.01,2013-07-06 05:46:00,
2013-07-06 00:51:00,79.3,74.4,29.85,SE,127,0.0,0.0,85,0.00,,---,0.00,VWS V14.01,2013-07-06 05:51:00,
2013-07-06 00:56:00,79.3,74.4,29.86,SE,126,0.0,0.0,85,0.00,,---,0.00,VWS V14.01,2013-07-06 05:56:00,
2013-07-06 01:01:00,79.2,74.3,29.85,SE,127,1.0,2.0,85,0.00,,---,0.00,VWS V14.01,2013-07-06 06:01:00,
2013-07-06 01:06:00,79.2,74.3,29.85,SE,129,2.0,2.0,85,0.00,,---,0.00,VWS V14.01,2013-07-06 06:06:00,
2013-07-06 01:11:00,79.1,74.2,29.85,SE,128,2.0,2.0,85,0.00,,---,0.00,VWS V14.01,2013-07-06 06:11:00,
2013-07-06 01:16:00,79.1,74.6,29.85,SE,128,2.0,2.0,86,0.00,,---,0.00,VWS V14.01,2013-07-06 06:16:00,
2013-07-06 01:21:00,79.1,74.6,29.86,SE,128,0.0,0.0,86,0.00,,---,0.00,VWS V14.01,2013-07-06 06:21:00,
2013-07-06 01:26:00,79.1,74.6,29.85,SE,128,0.0,0.0,86,0.00,,---,0.00,VWS V14.01,2013-07-06 06:26:00,
2013-07-06 01:30:00,79.0,74.5,29.85,SE,128,0.0,0.0,86,0.00,,---,0.00,VWS V14.01,2013-07-06 06:30:00,
2013-07-06 01:35:00,79.0,74.5,29.85,SE,128,0.0,0.0,86,0.00,,---,0.00,VWS V14.01,2013-07-06 06:35:00,
2013-07-06 01:40:00,78.9,74.4,29.85,SE,128,0.0,0.0,86,0.00,,---,0.00,VWS V14.01,2013-07-06 06:40:00,
2013-07-06 01:45:00,78.8,74.3,29.85,SE,128,0.0,0.0,86,0.00,,---,0.00,VWS V14.01,2013-07-06 06:45:00,
2013-07-06 01:50:00,78.7,74.2,29.85,SE,128,0.0,0.0,86,0.00,,---,0.00,VWS V14.01,2013-07-06 06:50:00,
2013-07-06 01:55:00,78.7,74.5,29.85,SE,128,0.0,0.0,87,0.00,,---,0.00,VWS V14.01,2013-07-06 06:55:00,
2013-07-06 02:00:00,78.6,74.4,29.85,SE,128,0.0,0.0,87,0.00,,---,0.00,VWS V14.01,2013-07-06 07:00:00,
2013-07-06 02:05:00,78.5,74.3,29.85,SE,128,0.0,0.0,87,0.00,,---,0.00,VWS V14.01,2013-07-06 07:05:00,
2013-07-06 02:10:00,78.5,74.3,29.85,SE,128,0.0,0.0,87,0.00,,---,0.00,VWS V14.01,2013-07-06 07:10:00,
2013-07-06 02:15:00,78.5,74.7,29.85,SE,128,0.0,0.0,88,0.00,,---,0.00,VWS V14.01,2013-07-06 07:15:00,
2013-07-06 02:20:00,78.6,74.8,29.85,SE,128,0.0,0.0,88,0.00,,---,0.00,VWS V14.01,2013-07-06 07:20:00,
2013-07-06 02:25:00,78.6,74.8,29.85,SE,128,0.0,0.0,88,0.00,,---,0.00,VWS V14.01,2013-07-06 07:25:00,
2013-07-06 02:30:00,78.5,74.7,29.84,SE,128,0.0,0.0,88,0.00,,---,0.00,VWS V14.01,2013-07-06 07:30:00,
2013-07-06 02:35:00,78.4,74.6,29.84,SE,128,0.0,0.0,88,0.00,,---,0.00,VWS V14.01,2013-07-06 07:35:00,
2013-07-06 02:40:00,78.3,74.5,29.84,SE,128,0.0,0.0,88,0.00,,---,0.00,VWS V14.01,2013-07-06 07:40:00,
2013-07-06 02:45:00,78.2,74.7,29.84,SE,128,0.0,0.0,89,0.00,,---,0.00,VWS V14.01,2013-07-06 07:45:00,
2013-07-06 02:50:00,78.1,74.3,29.84,SE,128,0.0,0.0,88,0.00,,---,0.00,VWS V14.01,2013-07-06 07:50:00,
2013-07-06 02:55:00,77.9,74.1,29.84,SE,128,0.0,0.0,88,0.00,,---,0.00,VWS V14.01,2013-07-06 07:55:00,
2013-07-06 03:00:00,77.6,73.8,29.84,SE,128,0.0,0.0,88,0.00,,---,0.00,VWS V14.01,2013-07-06 08:00:00,
2013-07-06 03:05:00,77.4,73.6,29.84,SE,128,0.0,0.0,88,0.00,,---,0.00,VWS V14.01,2013-07-06 08:05:00,
2013-07-06 03:10:00,77.4,73.9,29.84,SE,128,0.0,0.0,89,0.00,,---,0.00,VWS V14.01,2013-07-06 08:10:00,
2013-07-06 03:15:00,77.5,74.3,29.84,SE,128,0.0,0.0,90,0.00,,---,0.00,VWS V14.01,2013-07-06 08:15:00,
2013-07-06 03:20:00,77.4,74.2,29.84,SE,128,0.0,0.0,90,0.00,,---,0.00,VWS V14.01,2013-07-06 08:20:00,
2013-07-06 03:25:00,77.1,73.6,29.84,SE,128,0.0,0.0,89,0.00,,---,0.00,VWS V14.01,2013-07-06 08:25:00,
2013-07-06 03:30:00,76.8,73.3,29.84,SE,128,0.0,0.0,89,0.00,,---,0.00,VWS V14.01,2013-07-06 08:30:00,
2013-07-06 03:35:00,76.5,73.0,29.84,SE,128,0.0,0.0,89,0.00,,---,0.00,VWS V14.01,2013-07-06 08:35:00,
2013-07-06 03:40:00,76.2,72.7,29.84,SE,128,0.0,0.0,89,0.00,,---,0.00,VWS V14.01,2013-07-06 08:40:00,
2013-07-06 03:45:00,75.7,72.2,29.84,SE,128,0.0,0.0,89,0.00,,---,0.00,VWS V14.01,2013-07-06 08:45:00,
2013-07-06 03:50:00,75.4,71.9,29.84,SE,128,0.0,0.0,89,0.00,,---,0.00,VWS V14.01,2013-07-06 08:50:00,
2013-07-06 03:55:00,75.2,71.7,29.84,SE,128,0.0,0.0,89,0.00,,---,0.00,VWS V14.01,2013-07-06 08:55:00,
2013-07-06 04:00:00,74.9,71.8,29.83,SE,128,0.0,0.0,90,0.00,,---,0.00,VWS V14.01,2013-07-06 09:00:00,
2013-07-06 04:05:00,74.8,71.7,29.83,SE,128,0.0,0.0,90,0.00,,---,0.00,VWS V14.01,2013-07-06 09:05:00,
2013-07-06 04:10:00,74.7,71.6,29.83,SE,128,0.0,0.0,90,0.00,,---,0.00,VWS V14.01,2013-07-06 09:10:00,
2013-07-06 04:15:00,74.6,71.5,29.83,SE,128,0.0,0.0,90,0.00,,---,0.00,VWS V14.01,2013-07-06 09:15:00,
2013-07-06 04:20:00,74.6,71.8,29.83,SE,128,0.0,0.0,91,0.00,,---,0.00,VWS V14.01,2013-07-06 09:20:00,
2013-07-06 04:25:00,74.6,71.8,29.83,SE,128,0.0,0.0,91,0.00,,---,0.00,VWS V14.01,2013-07-06 09:25:00,
2013-07-06 04:30:00,74.6,71.8,29.83,SE,128,0.0,0.0,91,0.00,,---,0.00,VWS V14.01,2013-07-06 09:30:00,
2013-07-06 04:35:00,74.5,71.7,29.83,SE,128,0.0,0.0,91,0.00,,---,0.00,VWS V14.01,2013-07-06 09:35:00,
2013-07-06 04:40:00,74.5,71.7,29.83,SE,128,0.0,0.0,91,0.00,,---,0.00,VWS V14.01,2013-07-06 09:40:00,
2013-07-06 04:45:00,74.5,72.0,29.83,SE,128,0.0,0.0,92,0.00,,---,0.00,VWS V14.01,2013-07-06 09:45:00,
2013-07-06 04:50:00,74.6,72.1,29.83,SE,128,0.0,0.0,92,0.00,,---,0.00,VWS V14.01,2013-07-06 09:50:00,
2013-07-06 04:55:00,74.7,72.2,29.83,SE,128,0.0,0.0,92,0.00,,---,0.00,VWS V14.01,2013-07-06 09:55:00,
2013-07-06 05:00:00,74.7,72.2,29.83,SE,128,0.0,0.0,92,0.00,,---,0.00,VWS V14.01,2013-07-06 10:00:00,
2013-07-06 05:05:00,74.7,72.2,29.83,SE,128,0.0,0.0,92,0.00,,---,0.00,VWS V14.01,2013-07-06 10:05:00,
2013-07-06 05:10:00,74.6,72.1,29.83,SE,128,0.0,0.0,92,0.00,,---,0.00,VWS V14.01,2013-07-06 10:10:00,
2013-07-06 05:15:00,74.6,72.1,29.83,SE,128,0.0,0.0,92,0.00,,---,0.00,VWS V14.01,2013-07-06 10:15:00,
2013-07-06 05:20:00,74.8,72.6,29.83,SE,128,0.0,0.0,93,0.00,,---,0.00,VWS V14.01,2013-07-06 10:20:00,
2013-07-06 05:25:00,75.0,72.8,29.83,East,92,0.0,0.0,93,0.00,,---,0.00,VWS V14.01,2013-07-06 10:25:00,
2013-07-06 05:30:00,75.2,73.0,29.83,ENE,78,0.0,0.0,93,0.00,,---,0.00,VWS V14.01,2013-07-06 10:30:00,
2013-07-06 05:35:00,75.5,73.3,29.83,ENE,78,0.0,0.0,93,0.00,,---,0.00,VWS V14.01,2013-07-06 10:35:00,
2013-07-06 05:40:00,75.6,73.4,29.83,ENE,78,0.0,0.0,93,0.00,,---,0.00,VWS V14.01,2013-07-06 10:40:00,
2013-07-06 05:45:00,75.7,73.5,29.83,ENE,78,0.0,0.0,93,0.00,,---,0.00,VWS V14.01,2013-07-06 10:45:00,
2013-07-06 05:50:00,75.7,73.5,29.83,ENE,63,2.0,2.0,93,0.00,,---,0.00,VWS V14.01,2013-07-06 10:50:00,
2013-07-06 05:55:00,75.8,73.6,29.83,ENE,63,0.0,0.0,93,0.00,,---,0.00,VWS V14.01,2013-07-06 10:55:00,
2013-07-06 06:00:00,75.8,73.6,29.83,ENE,63,0.0,0.0,93,0.00,,---,0.00,VWS V14.01,2013-07-06 11:00:00,
2013-07-06 06:05:00,75.8,73.6,29.83,ENE,63,0.0,0.0,93,0.00,,---,0.00,VWS V14.01,2013-07-06 11:05:00,
2013-07-06 06:10:00,75.8,73.6,29.83,ENE,63,0.0,0.0,93,0.00,,---,0.00,VWS V14.01,2013-07-06 11:10:00,
2013-07-06 06:15:00,75.8,73.6,29.83,ENE,63,0.0,0.0,93,0.00,,---,0.00,VWS V14.01,2013-07-06 11:15:00,
2013-07-06 06:20:00,75.8,73.6,29.83,ENE,63,0.0,0.0,93,0.00,,---,0.00,VWS V14.01,2013-07-06 11:20:00,
2013-07-06 06:25:00,75.9,73.7,29.83,ENE,63,0.0,0.0,93,0.00,,---,0.00,VWS V14.01,2013-07-06 11:25:00,
2013-07-06 06:30:00,75.8,73.6,29.83,ENE,63,0.0,0.0,93,0.00,,---,0.00,VWS V14.01,2013-07-06 11:30:00,
2013-07-06 06:35:00,75.7,73.5,29.83,ENE,63,0.0,0.0,93,0.00,,---,0.00,VWS V14.01,2013-07-06 11:35:00,
2013-07-06 06:40:00,75.7,73.5,29.83,SSW,194,0.0,0.0,93,0.00,,---,0.00,VWS V14.01,2013-07-06 11:40:00,
2013-07-06 06:45:00,75.6,73.4,29.83,ENE,61,0.0,0.0,93,0.00,,---,0.00,VWS V14.01,2013-07-06 11:45:00,
2013-07-06 06:50:00,75.6,73.4,29.83,ENE,61,0.0,0.0,93,0.00,,---,0.00,VWS V14.01,2013-07-06 11:50:00,
2013-07-06 06:55:00,75.5,73.3,29.83,NW,306,0.0,0.0,93,0.00,,---,0.00,VWS V14.01,2013-07-06 11:55:00,
2013-07-06 07:00:00,75.4,73.2,29.83,NW,306,0.0,0.0,93,0.00,,---,0.00,VWS V14.01,2013-07-06 12:00:00,
2013-07-06 07:05:00,75.4,73.2,29.83,West,281,0.0,0.0,93,0.00,,---,0.00,VWS V14.01,2013-07-06 12:05:00,
2013-07-06 07:10:00,75.6,73.4,29.83,West,281,0.0,0.0,93,0.00,,---,0.00,VWS V14.01,2013-07-06 12:10:00,
2013-07-06 07:15:00,75.7,73.8,29.83,West,281,0.0,0.0,94,0.00,,---,0.00,VWS V14.01,2013-07-06 12:15:00,
2013-07-06 07:20:00,75.8,73.9,29.84,WNW,282,0.0,0.0,94,0.00,,---,0.00,VWS V14.01,2013-07-06 12:20:00,
2013-07-06 07:25:00,75.8,73.9,29.84,WNW,282,0.0,0.0,94,0.00,,---,0.00,VWS V14.01,2013-07-06 12:25:00,
2013-07-06 07:30:00,76.2,74.3,29.84,West,281,0.0,0.0,94,0.00,,---,0.00,VWS V14.01,2013-07-06 12:30:00,
2013-07-06 07:35:00,76.8,74.9,29.84,NW,310,0.0,0.0,94,0.00,,---,0.00,VWS V14.01,2013-07-06 12:35:00,
2013-07-06 07:39:00,77.5,76.0,29.84,SE,130,0.0,0.0,95,0.00,,---,0.00,VWS V14.01,2013-07-06 12:39:00,
2013-07-06 07:44:00,78.2,76.7,29.84,SE,130,0.0,0.0,95,0.00,,---,0.00,VWS V14.01,2013-07-06 12:44:00,
2013-07-06 07:49:00,78.9,77.3,29.84,SE,130,0.0,0.0,95,0.00,,---,0.00,VWS V14.01,2013-07-06 12:49:00,
2013-07-06 07:54:00,79.5,77.6,29.84,ENE,70,1.0,1.0,94,0.00,,---,0.00,VWS V14.01,2013-07-06 12:54:00,
2013-07-06 07:59:00,80.0,78.1,29.84,ENE,64,0.0,3.0,94,0.00,,---,0.00,VWS V14.01,2013-07-06 12:59:00,
2013-07-06 08:04:00,80.5,78.6,29.85,ENE,61,2.0,2.0,94,0.00,,---,0.00,VWS V14.01,2013-07-06 13:04:00,
2013-07-06 08:09:00,81.1,78.9,29.85,NE,53,0.0,0.0,93,0.00,,---,0.00,VWS V14.01,2013-07-06 13:09:00,
2013-07-06 08:14:00,81.7,78.8,29.85,ENE,65,3.0,4.0,91,0.00,,---,0.00,VWS V14.01,2013-07-06 13:14:00,
2013-07-06 08:19:00,82.3,78.7,29.85,NE,46,3.0,3.0,89,0.00,,---,0.00,VWS V14.01,2013-07-06 13:19:00,
2013-07-06 08:24:00,82.8,77.8,29.85,ENE,71,5.0,5.0,85,0.00,,---,0.00,VWS V14.01,2013-07-06 13:24:00,
2013-07-06 08:29:00,83.4,78.1,29.84,ESE,110,1.0,4.0,84,0.00,,---,0.00,VWS V14.01,2013-07-06 13:29:00,
2013-07-06 08:34:00,83.8,77.3,29.84,ENE,69,3.0,9.0,81,0.00,,---,0.00,VWS V14.01,2013-07-06 13:34:00,
2013-07-06 08:39:00,84.4,77.6,29.85,ENE,72,1.0,3.0,80,0.00,,---,0.00,VWS V14.01,2013-07-06 13:39:00,
2013-07-06 08:44:00,84.9,78.0,29.85,East,80,0.0,2.0,80,0.00,,---,0.00,VWS V14.01,2013-07-06 13:44:00,
2013-07-06 08:49:00,85.0,77.4,29.84,East,86,3.0,4.0,78,0.00,,---,0.00,VWS V14.01,2013-07-06 13:49:00,
2013-07-06 08:54:00,85.6,77.6,29.85,East,95,3.0,5.0,77,0.00,,---,0.00,VWS V14.01,2013-07-06 13:54:00,
2013-07-06 08:59:00,85.8,77.0,29.85,ENE,59,3.0,6.0,75,0.00,,---,0.00,VWS V14.01,2013-07-06 13:59:00,
2013-07-06 09:04:00,85.9,77.5,29.85,ENE,76,3.0,3.0,76,0.00,,---,0.00,VWS V14.01,2013-07-06 14:04:00,
2013-07-06 09:09:00,86.1,77.7,29.85,NE,51,0.0,3.0,76,0.00,,---,0.00,VWS V14.01,2013-07-06 14:09:00,
2013-07-06 09:14:00,86.3,77.4,29.85,ENE,61,2.0,5.0,75,0.00,,---,0.00,VWS V14.01,2013-07-06 14:14:00,
2013-07-06 09:19:00,86.8,77.5,29.85,East,87,2.0,7.0,74,0.00,,---,0.00,VWS V14.01,2013-07-06 14:19:00,
2013-07-06 09:24:00,87.1,77.4,29.85,ESE,110,3.0,3.0,73,0.00,,---,0.00,VWS V14.01,2013-07-06 14:24:00,
2013-07-06 09:29:00,86.7,77.0,29.85,ENE,64,2.0,3.0,73,0.00,,---,0.00,VWS V14.01,2013-07-06 14:29:00,
2013-07-06 09:34:00,86.7,77.4,29.86,ENE,63,3.0,5.0,74,0.00,,---,0.00,VWS V14.01,2013-07-06 14:34:00,
2013-07-06 09:39:00,86.7,77.0,29.86,NE,54,3.0,6.0,73,0.00,,---,0.00,VWS V14.01,2013-07-06 14:39:00,
2013-07-06 09:44:00,86.5,77.2,29.85,ENE,71,0.0,3.0,74,0.00,,---,0.00,VWS V14.01,2013-07-06 14:44:00,
2013-07-06 09:49:00,86.2,76.5,29.85,East,90,2.0,5.0,73,0.00,,---,0.00,VWS V14.01,2013-07-06 14:49:00,
2013-07-06 09:54:00,86.5,76.4,29.85,East,88,1.0,7.0,72,0.00,,---,0.00,VWS V14.01,2013-07-06 14:54:00,
2013-07-06 09:59:00,86.9,75.9,29.86,ESE,106,6.0,8.0,70,0.00,,---,0.00,VWS V14.01,2013-07-06 14:59:00,
2013-07-06 10:04:00,87.2,76.2,29.86,ENE,71,9.0,9.0,70,0.00,,---,0.00,VWS V14.01,2013-07-06 15:04:00,
2013-07-06 10:09:00,87.9,76.0,29.85,ESE,111,3.0,6.0,68,0.00,,---,0.00,VWS V14.01,2013-07-06 15:09:00,
2013-07-06 10:14:00,87.7,75.8,29.86,ESE,115,6.0,6.0,68,0.00,,---,0.00,VWS V14.01,2013-07-06 15:14:00,
2013-07-06 10:19:00,87.5,76.1,29.86,East,97,4.0,9.0,69,0.00,,---,0.00,VWS V14.01,2013-07-06 15:19:00,
2013-07-06 10:24:00,87.6,76.6,29.86,ESE,108,7.0,12.0,70,0.00,,---,0.00,VWS V14.01,2013-07-06 15:24:00,
2013-07-06 10:29:00,87.0,75.6,29.86,East,92,4.0,12.0,69,0.00,,---,0.00,VWS V14.01,2013-07-06 15:29:00,
2013-07-06 10:34:00,86.9,75.9,29.86,East,93,3.0,11.0,70,0.00,,---,0.00,VWS V14.01,2013-07-06 15:34:00,
2013-07-06 10:39:00,86.8,76.7,29.86,ENE,78,3.0,10.0,72,0.00,,---,0.00,VWS V14.01,2013-07-06 15:39:00,
2013-07-06 10:44:00,87.1,77.4,29.86,East,80,2.0,6.0,73,0.00,,---,0.00,VWS V14.01,2013-07-06 15:44:00,
2013-07-06 10:49:00,87.3,76.8,29.85,SE,124,10.0,13.0,71,0.00,,---,0.00,VWS V14.01,2013-07-06 15:49:00,
2013-07-06 10:54:00,87.1,76.1,29.86,East,96,5.0,10.0,70,0.00,,---,0.00,VWS V14.01,2013-07-06 15:54:00,
2013-07-06 10:59:00,87.4,77.3,29.85,East,99,7.0,12.0,72,0.00,,---,0.00,VWS V14.01,2013-07-06 15:59:00,
2013-07-06 11:04:00,87.4,76.4,29.86,NNE,33,1.0,5.0,70,0.00,,---,0.00,VWS V14.01,2013-07-06 16:04:00,
2013-07-06 11:09:00,87.2,76.7,29.86,ESE,107,4.0,11.0,71,0.00,,---,0.00,VWS V14.01,2013-07-06 16:09:00,
2013-07-06 11:14:00,87.1,76.1,29.86,ENE,57,5.0,6.0,70,0.00,,---,0.00,VWS V14.01,2013-07-06 16:14:00,
2013-07-06 11:19:00,87.5,76.9,29.86,ENE,72,6.0,10.0,71,0.00,,---,0.00,VWS V14.01,2013-07-06 16:19:00,
2013-07-06 11:24:00,87.9,75.6,29.86,ESE,106,5.0,11.0,67,0.00,,---,0.00,VWS V14.01,2013-07-06 16:24:00,
2013-07-06 11:29:00,87.6,74.8,29.86,ESE,106,5.0,9.0,66,0.00,,---,0.00,VWS V14.01,2013-07-06 16:29:00,
2013-07-06 11:35:00,87.5,75.2,29.86,ESE,113,10.0,10.0,67,0.00,,---,0.00,VWS V14.01,2013-07-06 16:35:00,
2013-07-06 11:40:00,87.6,75.7,29.86,East,93,3.0,3.0,68,0.00,,---,0.00,VWS V14.01,2013-07-06 16:40:00,
2013-07-06 11:45:00,88.0,77.4,29.85,ESE,115,10.0,10.0,71,0.00,,---,0.00,VWS V14.01,2013-07-06 16:45:00,
2013-07-06 11:50:00,88.6,76.7,29.86,East,80,6.0,7.0,68,0.00,,---,0.00,VWS V14.01,2013-07-06 16:50:00,
2013-07-06 11:55:00,88.4,76.5,29.86,East,90,8.0,10.0,68,0.00,,---,0.00,VWS V14.01,2013-07-06 16:55:00,
2013-07-06 12:00:00,88.4,76.5,29.86,East,100,9.0,9.0,68,0.00,,---,0.00,VWS V14.01,2013-07-06 17:00:00,
2013-07-06 12:05:00,88.5,76.6,29.86,East,90,5.0,5.0,68,0.00,,---,0.00,VWS V14.01,2013-07-06 17:05:00,
2013-07-06 12:10:00,88.1,76.7,29.86,East,98,4.0,7.0,69,0.00,,---,0.00,VWS V14.01,2013-07-06 17:10:00,
2013-07-06 12:15:00,87.8,76.8,29.86,ESE,103,5.0,9.0,70,0.00,,---,0.00,VWS V14.01,2013-07-06 17:15:00,
2013-07-06 12:20:00,87.9,76.9,29.85,East,94,4.0,9.0,70,0.00,,---,0.00,VWS V14.01,2013-07-06 17:20:00,
2013-07-06 12:25:00,88.2,77.6,29.86,ESE,103,8.0,10.0,71,0.00,,---,0.00,VWS V14.01,2013-07-06 17:25:00,
2013-07-06 12:31:00,88.4,76.9,29.86,East,96,0.0,2.0,69,0.00,,---,0.00,VWS V14.01,2013-07-06 17:31:00,
2013-07-06 12:36:00,88.5,76.2,29.85,East,90,3.0,10.0,67,0.00,,---,0.00,VWS V14.01,2013-07-06 17:36:00,
2013-07-06 12:41:00,88.4,76.1,29.85,NE,49,1.0,4.0,67,0.00,,---,0.00,VWS V14.01,2013-07-06 17:41:00,
2013-07-06 12:46:00,88.7,77.2,29.85,ENE,57,3.0,10.0,69,0.00,,---,0.00,VWS V14.01,2013-07-06 17:46:00,
2013-07-06 12:51:00,89.5,77.6,29.85,ESE,113,1.0,9.0,68,0.00,,---,0.00,VWS V14.01,2013-07-06 17:51:00,
2013-07-06 12:56:00,89.4,77.0,29.85,NNE,32,6.0,10.0,67,0.00,,---,0.00,VWS V14.01,2013-07-06 17:56:00,
2013-07-06 13:01:00,89.5,77.6,29.85,NE,36,3.0,6.0,68,0.00,,---,0.00,VWS V14.01,2013-07-06 18:01:00,
2013-07-06 13:06:00,90.1,77.7,29.84,East,90,9.0,9.0,67,0.00,,---,0.00,VWS V14.01,2013-07-06 18:06:00,
2013-07-06 13:12:00,90.1,78.1,29.84,East,79,9.0,9.0,68,0.00,,---,0.00,VWS V14.01,2013-07-06 18:12:00,
2013-07-06 13:17:00,90.4,78.4,29.84,East,98,15.0,15.0,68,0.00,,---,0.00,VWS V14.01,2013-07-06 18:17:00,
2013-07-06 13:22:00,89.5,77.6,29.84,East,82,5.0,11.0,68,0.00,,---,0.00,VWS V14.01,2013-07-06 18:22:00,
2013-07-06 13:27:00,89.3,76.5,29.84,ESE,113,8.0,11.0,66,0.00,,---,0.00,VWS V14.01,2013-07-06 18:27:00,
2013-07-06 13:32:00,89.2,76.4,29.84,ESE,115,12.0,14.0,66,0.00,,---,0.00,VWS V14.01,2013-07-06 18:32:00,
2013-07-06 13:37:00,89.1,77.6,29.84,ESE,122,6.0,11.0,69,0.00,,---,0.00,VWS V14.01,2013-07-06 18:37:00,
2013-07-06 13:42:00,89.9,77.5,29.84,ENE,63,2.0,10.0,67,0.00,,---,0.00,VWS V14.01,2013-07-06 18:42:00,
2013-07-06 13:47:00,89.8,77.4,29.84,ESE,106,5.0,7.0,67,0.00,,---,0.00,VWS V14.01,2013-07-06 18:47:00,
2013-07-06 13:52:00,89.7,78.2,29.84,ENE,68,7.0,10.0,69,0.00,,---,0.00,VWS V14.01,2013-07-06 18:52:00,
2013-07-06 13:57:00,89.6,77.6,29.84,ESE,105,11.0,11.0,68,0.00,,---,0.00,VWS V14.01,2013-07-06 18:57:00,
2013-07-06 14:02:00,89.5,76.7,29.83,East,93,7.0,13.0,66,0.00,,---,0.00,VWS V14.01,2013-07-06 19:02:00,
2013-07-06 14:07:00,89.7,77.7,29.83,ESE,113,2.0,8.0,68,0.00,,---,0.00,VWS V14.01,2013-07-06 19:07:00,
2013-07-06 14:12:00,90.1,77.7,29.83,East,83,11.0,11.0,67,0.00,,---,0.00,VWS V14.01,2013-07-06 19:12:00,
2013-07-06 14:18:00,89.7,77.7,29.83,ENE,61,3.0,6.0,68,0.00,,---,0.00,VWS V14.01,2013-07-06 19:18:00,
2013-07-06 14:23:00,89.5,77.1,29.83,East,86,4.0,7.0,67,0.00,,---,0.00,VWS V14.01,2013-07-06 19:23:00,
2013-07-06 14:28:00,88.7,76.8,29.83,ESE,109,12.0,16.0,68,0.00,,---,0.00,VWS V14.01,2013-07-06 19:28:00,
2013-07-06 14:33:00,88.8,77.3,29.83,ENE,71,7.0,11.0,69,0.00,,---,0.00,VWS V14.01,2013-07-06 19:33:00,
2013-07-06 14:38:00,89.2,77.3,29.83,ENE,61,1.0,11.0,68,0.00,,---,0.00,VWS V14.01,2013-07-06 19:38:00,
2013-07-06 14:43:00,89.3,76.5,29.83,East,101,11.0,14.0,66,0.00,,---,0.00,VWS V14.01,2013-07-06 19:43:00,
2013-07-06 14:48:00,89.6,77.6,29.83,SE,132,7.0,14.0,68,0.00,,---,0.00,VWS V14.01,2013-07-06 19:48:00,
2013-07-06 14:54:00,89.8,76.5,29.83,ESE,111,15.0,15.0,65,0.00,,---,0.00,VWS V14.01,2013-07-06 19:54:00,
2013-07-06 14:59:00,89.3,76.9,29.83,East,81,7.0,7.0,67,0.00,,---,0.00,VWS V14.01,2013-07-06 19:59:00,
2013-07-06 15:04:00,89.1,76.7,29.82,ESE,106,6.0,6.0,67,0.00,,---,0.00,VWS V14.01,2013-07-06 20:04:00,
2013-07-06 15:09:00,88.6,76.7,29.82,ESE,102,12.0,15.0,68,0.00,,---,0.00,VWS V14.01,2013-07-06 20:09:00,
2013-07-06 15:14:00,88.7,75.9,29.82,ESE,105,8.0,12.0,66,0.00,,---,0.00,VWS V14.01,2013-07-06 20:14:00,
2013-07-06 15:19:00,88.7,76.8,29.82,ESE,105,6.0,11.0,68,0.00,,---,0.00,VWS V14.01,2013-07-06 20:19:00,
2013-07-06 15:24:00,89.2,76.4,29.82,ENE,65,10.0,15.0,66,0.00,,---,0.00,VWS V14.01,2013-07-06 20:24:00,
2013-07-06 15:29:00,88.9,76.1,29.82,SE,132,13.0,15.0,66,0.00,,---,0.00,VWS V14.01,2013-07-06 20:29:00,
2013-07-06 15:34:00,88.8,76.9,29.81,East,94,14.0,16.0,68,0.00,,---,0.00,VWS V14.01,2013-07-06 20:34:00,
2013-07-06 15:39:00,88.7,76.3,29.81,ENE,75,9.0,14.0,67,0.00,,---,0.00,VWS V14.01,2013-07-06 20:39:00,
2013-07-06 15:44:00,88.5,77.5,29.81,East,82,8.0,12.0,70,0.00,,---,0.00,VWS V14.01,2013-07-06 20:44:00,
2013-07-06 15:49:00,88.7,77.2,29.81,East,92,7.0,14.0,69,0.00,,---,0.00,VWS V14.01,2013-07-06 20:49:00,
2013-07-06 15:55:00,88.8,77.3,29.81,NE,55,6.0,12.0,69,0.00,,---,0.00,VWS V14.01,2013-07-06 20:55:00,
2013-07-06 16:00:00,88.7,77.7,29.81,ESE,108,7.0,13.0,70,0.00,,---,0.00,VWS V14.01,2013-07-06 21:00:00,
2013-07-06 16:05:00,88.2,77.6,29.80,ESE,109,15.0,15.0,71,0.00,,---,0.00,VWS V14.01,2013-07-06 21:05:00,
2013-07-06 16:10:00,87.7,76.7,29.80,East,101,12.0,15.0,70,0.00,,---,0.00,VWS V14.01,2013-07-06 21:10:00,
2013-07-06 16:15:00,88.2,76.8,29.80,East,83,10.0,12.0,69,0.00,,---,0.00,VWS V14.01,2013-07-06 21:15:00,
2013-07-06 16:20:00,88.1,76.2,29.80,ESE,111,11.0,14.0,68,0.00,,---,0.00,VWS V14.01,2013-07-06 21:20:00,
2013-07-06 16:25:00,88.2,75.9,29.80,East,94,9.0,16.0,67,0.00,,---,0.00,VWS V14.01,2013-07-06 21:25:00,
2013-07-06 16:30:00,88.2,76.3,29.80,East,101,5.0,11.0,68,0.00,,---,0.00,VWS V14.01,2013-07-06 21:30:00,
2013-07-06 16:35:00,88.0,76.6,29.80,ESE,112,9.0,14.0,69,0.00,,---,0.00,VWS V14.01,2013-07-06 21:35:00,
2013-07-06 16:40:00,87.6,76.2,29.79,East,92,4.0,15.0,69,0.00,,---,0.00,VWS V14.01,2013-07-06 21:40:00,
2013-07-06 16:45:00,87.5,76.1,29.79,ESE,105,14.0,15.0,69,0.00,,---,0.00,VWS V14.01,2013-07-06 21:45:00,
2013-07-06 16:50:00,87.7,76.7,29.79,ESE,109,10.0,10.0,70,0.00,,---,0.00,VWS V14.01,2013-07-06 21:50:00,
2013-07-06 16:55:00,88.0,77.4,29.79,East,94,14.0,15.0,71,0.00,,---,0.00,VWS V14.01,2013-07-06 21:55:00,
2013-07-06 17:01:00,87.5,76.5,29.79,East,98,13.0,13.0,70,0.00,,---,0.00,VWS V14.01,2013-07-06 22:01:00,
2013-07-06 17:06:00,87.4,76.0,29.79,ESE,107,12.0,14.0,69,0.00,,---,0.00,VWS V14.01,2013-07-06 22:06:00,
2013-07-06 17:11:00,87.8,76.8,29.79,ESE,116,13.0,13.0,70,0.00,,---,0.00,VWS V14.01,2013-07-06 22:11:00,
2013-07-06 17:16:00,87.9,76.5,29.79,ESE,102,11.0,11.0,69,0.00,,---,0.00,VWS V14.01,2013-07-06 22:16:00,
2013-07-06 17:22:00,87.7,75.8,29.78,East,86,12.0,15.0,68,0.00,,---,0.00,VWS V14.01,2013-07-06 22:22:00,
2013-07-06 17:27:00,87.6,77.0,29.79,ESE,106,10.0,11.0,71,0.00,,---,0.00,VWS V14.01,2013-07-06 22:27:00,
2013-07-06 17:32:00,87.6,76.2,29.79,ESE,111,8.0,12.0,69,0.00,,---,0.00,VWS V14.01,2013-07-06 22:32:00,
2013-07-06 17:37:00,87.5,75.2,29.79,SE,142,12.0,14.0,67,0.00,,---,0.00,VWS V14.01,2013-07-06 22:37:00,
2013-07-06 17:42:00,87.7,75.8,29.79,ESE,109,12.0,14.0,68,0.00,,---,0.00,VWS V14.01,2013-07-06 22:42:00,
2013-07-06 17:47:00,87.6,75.7,29.79,SE,125,11.0,11.0,68,0.00,,---,0.00,VWS V14.01,2013-07-06 22:47:00,
2013-07-06 17:52:00,87.5,76.5,29.79,ESE,109,10.0,14.0,70,0.00,,---,0.00,VWS V14.01,2013-07-06 22:52:00,
2013-07-06 17:58:00,87.7,76.7,29.79,ESE,113,11.0,12.0,70,0.00,,---,0.00,VWS V14.01,2013-07-06 22:58:00,
2013-07-06 18:03:00,87.6,76.6,29.79,East,94,8.0,12.0,70,0.00,,---,0.00,VWS V14.01,2013-07-06 23:03:00,
2013-07-06 18:08:00,87.1,75.7,29.79,ESE,119,9.0,12.0,69,0.00,,---,0.00,VWS V14.01,2013-07-06 23:08:00,
2013-07-06 18:14:00,87.0,74.3,29.79,ESE,111,6.0,11.0,66,0.00,,---,0.00,VWS V14.01,2013-07-06 23:14:00,
2013-07-06 18:19:00,87.1,73.4,29.79,ESE,106,11.0,11.0,64,0.00,,---,0.00,VWS V14.01,2013-07-06 23:19:00,
2013-07-06 18:24:00,87.2,74.9,29.79,ESE,104,10.0,13.0,67,0.00,,---,0.00,VWS V14.01,2013-07-06 23:24:00,
2013-07-06 18:29:00,87.0,75.2,29.78,ESE,102,10.0,13.0,68,0.00,,---,0.00,VWS V14.01,2013-07-06 23:29:00,
2013-07-06 18:35:00,86.8,76.3,29.79,ESE,106,10.0,10.0,71,0.00,,---,0.00,VWS V14.01,2013-07-06 23:35:00,
2013-07-06 18:40:00,86.7,76.2,29.79,ESE,106,16.0,16.0,71,0.00,,---,0.00,VWS V14.01,2013-07-06 23:40:00,
2013-07-06 18:45:00,86.4,76.7,29.79,East,101,16.0,16.0,73,0.00,,---,0.00,VWS V14.01,2013-07-06 23:45:00,
2013-07-06 18:50:00,86.1,76.8,29.79,East,101,10.0,12.0,74,0.00,,---,0.00,VWS V14.01,2013-07-06 23:50:00,
2013-07-06 18:55:00,86.2,76.9,29.79,ESE,119,9.0,12.0,74,0.00,,---,0.00,VWS V14.01,2013-07-06 23:55:00,
2013-07-06 19:00:00,86.3,77.4,29.79,East,98,11.0,12.0,75,0.00,,---,0.00,VWS V14.01,2013-07-07 00:00:00,
2013-07-06 19:05:00,86.0,77.2,29.79,ESE,117,8.0,8.0,75,0.00,,---,0.00,VWS V14.01,2013-07-07 00:05:00,
2013-07-06 19:10:00,86.0,77.2,29.79,ESE,103,13.0,13.0,75,0.00,,---,0.00,VWS V14.01,2013-07-07 00:10:00,
2013-07-06 19:16:00,86.0,77.6,29.79,ESE,110,6.0,12.0,76,0.00,,---,0.00,VWS V14.01,2013-07-07 00:16:00,
2013-07-06 19:21:00,85.8,77.0,29.80,ESE,115,9.0,13.0,75,0.00,,---,0.00,VWS V14.01,2013-07-07 00:21:00,
2013-07-06 19:26:00,85.6,76.4,29.80,East,92,14.0,14.0,74,0.00,,---,0.00,VWS V14.01,2013-07-07 00:26:00,
2013-07-06 19:32:00,85.3,76.1,29.80,East,92,13.0,13.0,74,0.00,,---,0.00,VWS V14.01,2013-07-07 00:32:00,
2013-07-06 19:37:00,85.3,76.9,29.80,SE,128,9.0,9.0,76,0.00,,---,0.00,VWS V14.01,2013-07-07 00:37:00,
2013-07-06 19:42:00,85.2,77.2,29.80,East,94,10.0,13.0,77,0.00,,---,0.00,VWS V14.01,2013-07-07 00:42:00,
2013-07-06 19:47:00,84.9,76.9,29.80,ESE,119,6.0,11.0,77,0.00,,---,0.00,VWS V14.01,2013-07-07 00:47:00,
2013-07-06 19:52:00,84.8,76.4,29.80,SE,132,13.0,13.0,76,0.00,,---,0.00,VWS V14.01,2013-07-07 00:52:00,
2013-07-06 19:57:00,84.6,76.6,29.80,ESE,108,6.0,13.0,77,0.00,,---,0.00,VWS V14.01,2013-07-07 00:57:00,
2013-07-06 20:02:00,84.5,76.5,29.80,ESE,118,9.0,12.0,77,0.00,,---,0.00,VWS V14.01,2013-07-07 01:02:00,
2013-07-06 20:08:00,84.3,76.7,29.80,ESE,114,6.0,9.0,78,0.00,,---,0.00,VWS V14.01,2013-07-07 01:08:00,
2013-07-06 20:13:00,84.1,76.5,29.81,ESE,119,11.0,12.0,78,0.00,,---,0.00,VWS V14.01,2013-07-07 01:13:00,
2013-07-06 20:18:00,84.0,76.4,29.81,East,97,11.0,12.0,78,0.00,,---,0.00,VWS V14.01,2013-07-07 01:18:00,
2013-07-06 20:32:00,83.8,77.0,29.81,ESE,107,6.0,11.0,80,0.00,,---,0.00,VWS V14.01,2013-07-07 01:32:00,
2013-07-06 20:37:00,83.6,77.2,29.81,ESE,105,9.0,9.0,81,0.00,,---,0.00,VWS V14.01,2013-07-07 01:37:00,
2013-07-06 20:42:00,83.6,77.5,29.82,SE,134,11.0,11.0,82,0.00,,---,0.00,VWS V14.01,2013-07-07 01:42:00,
2013-07-06 20:48:00,83.4,77.7,29.81,ESE,118,3.0,4.0,83,0.00,,---,0.00,VWS V14.01,2013-07-07 01:48:00,
2013-07-06 20:53:00,83.3,77.6,29.81,SE,125,9.0,9.0,83,0.00,,---,0.00,VWS V14.01,2013-07-07 01:53:00,
2013-07-06 20:58:00,83.1,77.4,29.81,SE,130,7.0,7.0,83,0.00,,---,0.00,VWS V14.01,2013-07-07 01:58:00,
2013-07-06 21:03:00,83.0,77.3,29.82,SE,138,4.0,9.0,83,0.00,,---,0.00,VWS V14.01,2013-07-07 02:03:00,
2013-07-06 21:08:00,82.8,77.1,29.82,SE,144,8.0,8.0,83,0.00,,---,0.00,VWS V14.01,2013-07-07 02:08:00,
2013-07-06 21:13:00,82.7,77.0,29.82,SE,132,3.0,7.0,83,0.00,,---,0.00,VWS V14.01,2013-07-07 02:13:00,
2013-07-06 21:18:00,82.6,77.3,29.82,SSE,150,5.0,9.0,84,0.00,,---,0.00,VWS V14.01,2013-07-07 02:18:00,
2013-07-06 21:23:00,82.5,77.2,29.82,ESE,122,7.0,10.0,84,0.00,,---,0.00,VWS V14.01,2013-07-07 02:23:00,
2013-07-06 21:28:00,82.4,77.1,29.82,ESE,122,7.0,12.0,84,0.00,,---,0.00,VWS V14.01,2013-07-07 02:28:00,
2013-07-06 21:33:00,82.3,77.0,29.82,SE,138,6.0,9.0,84,0.00,,---,0.00,VWS V14.01,2013-07-07 02:33:00,
2013-07-06 21:38:00,82.2,76.9,29.82,SE,146,6.0,10.0,84,0.00,,---,0.00,VWS V14.01,2013-07-07 02:38:00,
2013-07-06 21:43:00,82.1,76.8,29.82,SE,136,3.0,3.0,84,0.00,,---,0.00,VWS V14.01,2013-07-07 02:43:00,
2013-07-06 21:48:00,82.0,76.7,29.82,ESE,113,6.0,6.0,84,0.00,,---,0.00,VWS V14.01,2013-07-07 02:48:00,
2013-07-06 21:54:00,81.9,76.9,29.82,SE,145,3.0,5.0,85,0.00,,---,0.00,VWS V14.01,2013-07-07 02:54:00,
2013-07-06 21:59:00,81.9,76.9,29.82,SE,134,2.0,3.0,85,0.00,,---,0.00,VWS V14.01,2013-07-07 02:59:00,
2013-07-06 22:04:00,81.8,76.8,29.82,SSE,149,7.0,7.0,85,0.00,,---,0.00,VWS V14.01,2013-07-07 03:04:00,
2013-07-06 22:09:00,81.7,77.1,29.83,SSE,154,5.0,9.0,86,0.00,,---,0.00,VWS V14.01,2013-07-07 03:09:00,
2013-07-06 22:14:00,81.6,77.0,29.83,SE,137,4.0,4.0,86,0.00,,---,0.00,VWS V14.01,2013-07-07 03:14:00,
2013-07-06 22:19:00,81.5,76.9,29.83,SSE,163,4.0,7.0,86,0.00,,---,0.00,VWS V14.01,2013-07-07 03:19:00,
2013-07-06 22:24:00,81.3,76.7,29.83,South,169,5.0,6.0,86,0.00,,---,0.00,VWS V14.01,2013-07-07 03:24:00,
2013-07-06 22:29:00,81.2,76.6,29.83,South,171,7.0,7.0,86,0.00,,---,0.00,VWS V14.01,2013-07-07 03:29:00,
2013-07-06 22:34:00,81.0,76.4,29.83,SSE,167,3.0,6.0,86,0.00,,---,0.00,VWS V14.01,2013-07-07 03:34:00,
2013-07-06 22:39:00,80.9,76.7,29.83,South,169,7.0,7.0,87,0.00,,---,0.00,VWS V14.01,2013-07-07 03:39:00,
2013-07-06 22:44:00,80.8,76.6,29.83,South,172,2.0,6.0,87,0.00,,---,0.00,VWS V14.01,2013-07-07 03:44:00,
2013-07-06 22:50:00,80.6,76.4,29.83,South,173,2.0,2.0,87,0.00,,---,0.00,VWS V14.01,2013-07-07 03:50:00,
2013-07-06 22:55:00,80.5,76.3,29.83,South,173,2.0,2.0,87,0.00,,---,0.00,VWS V14.01,2013-07-07 03:55:00,
2013-07-06 23:00:00,80.3,76.1,29.83,South,172,2.0,2.0,87,0.00,,---,0.00,VWS V14.01,2013-07-07 04:00:00,
2013-07-06 23:01:00,80.3,76.1,29.83,South,172,1.0,1.0,87,0.00,,---,0.00,VWS V14.01,2013-07-07 04:01:00,
2013-07-06 23:06:00,80.1,75.9,29.83,South,172,1.0,1.0,87,0.00,,---,0.00,VWS V14.01,2013-07-07 04:06:00,
2013-07-06 23:11:00,80.1,75.9,29.83,South,172,0.0,0.0,87,0.00,,---,0.00,VWS V14.01,2013-07-07 04:11:00,
2013-07-06 23:16:00,80.0,76.1,29.83,South,172,0.0,0.0,88,0.00,,---,0.00,VWS V14.01,2013-07-07 04:16:00,
2013-07-06 23:21:00,79.9,76.0,29.83,South,172,0.0,0.0,88,0.00,,---,0.00,VWS V14.01,2013-07-07 04:21:00,
2013-07-06 23:26:00,79.8,75.9,29.83,South,172,0.0,0.0,88,0.00,,---,0.00,VWS V14.01,2013-07-07 04:26:00,
2013-07-06 23:31:00,79.7,75.8,29.83,South,172,0.0,0.0,88,0.00,,---,0.00,VWS V14.01,2013-07-07 04:31:00,
2013-07-06 23:36:00,79.6,75.7,29.83,South,172,0.0,0.0,88,0.00,,---,0.00,VWS V14.01,2013-07-07 04:36:00,
2013-07-06 23:41:00,79.5,75.6,29.83,South,169,2.0,4.0,88,0.00,,---,0.00,VWS V14.01,2013-07-07 04:41:00,
2013-07-06 23:46:00,79.4,75.5,29.83,South,169,0.0,0.0,88,0.00,,---,0.00,VWS V14.01,2013-07-07 04:46:00,
2013-07-06 23:51:00,79.4,75.5,29.83,SSE,168,0.0,0.0,88,0.00,,---,0.00,VWS V14.01,2013-07-07 04:51:00,
2013-07-06 23:56:00,79.3,75.1,29.83,SSE,168,0.0,0.0,87,0.00,,---,0.00,VWS V14.01,2013-07-07 04:56:00,